{"data":{"norad_id":65929,"intl_designator":"2025-225V","name":"STARLINK-35175","alt_names":[],"object_type":"PAYLOAD","status":"ACTIVE","operator":null,"country":"US","launch_date":"2025-10-08","launch_site_code":"AFWTR","launch_vehicle":null,"mission":null,"orbit_class":"UNKNOWN","rcs_meters":null,"size_class":null,"mass_kg":null,"dimensions":null,"purposes":["comms"],"wikipedia_slug":null,"has_3d_model":false,"image_url":null,"decayed_at":null,"tle_current":{"epoch":"2026-05-24T11:44:35.637504Z","epoch_age_seconds":115318,"freshness":"FRESH","line1":"1 65929U 25225V   26144.48930136  .00020803  00000+0  71270-3 0  9990","line2":"2 65929  53.1585 173.5764 0001080  70.1581 289.9536 15.30192161 36015","mean_motion":15.30192161,"eccentricity":0.000108,"inclination_deg":53.1585,"raan_deg":173.5764,"arg_perigee_deg":70.1581,"mean_anomaly_deg":289.9536,"bstar":0.0007127,"rev_number":3601,"period_min":94.105827797402,"perigee_km":474.49831080892,"apogee_km":475.97863991159,"semimajor_km":6853.3754753603,"source":"CELESTRAK","updated_at":"2026-05-25T13:38:20.990258Z"}}}